This is the latest recevied weather packets stored in our database for station/object N1CTF-9. If no packets are shown the sender has not sent any weather packets the latest 10 day(s).
| Time | Temp. | Humidity | Pressure | Rain* | Wind** | Luminosity | Snow |
|---|---|---|---|---|---|---|---|
| 1777289790 | 6.67° C | 98% | 1018.8 hPa | 0 mm | - | 422 W/m² | - |
| 1777289190 | 6.67° C | 97% | 1019.1 hPa | 0 mm | - | 324 W/m² | - |
| 1777288590 | 6.67° C | 98% | 1018.7 hPa | 0 mm | - | 263 W/m² | - |
| 1777287990 | 6.67° C | 98% | 1018.6 hPa | 0 mm | - | 200 W/m² | - |
| 1777287390 | 6.67° C | 97% | 1018.9 hPa | 0 mm | - | 131 W/m² | - |
| 1777286790 | 6.67° C | 97% | 1018.9 hPa | 0 mm | - | 680 W/m² | - |
| 1777286190 | 6.11° C | 97% | 1019.3 hPa | 0 mm | - | 290 W/m² | - |
| 1777285590 | 6.11° C | 97% | 1019.2 hPa | 0 mm | - | 60 W/m² | - |
| 1777284990 | 6.11° C | 97% | 1019.1 hPa | 0 mm | - | 0 W/m² | - |
| 1777284390 | 6.11° C | 97% | 1019.1 hPa | 0 mm | - | 0 W/m² | - |
| 1777283790 | 6.11° C | 97% | 1019.4 hPa | 0 mm | - | 0 W/m² | - |
| 1777283190 | 6.11° C | 97% | 1019.2 hPa | 0 mm | - | 0 W/m² | - |
| 1777282590 | 6.11° C | 97% | 1019.5 hPa | 0 mm | - | 0 W/m² | - |
| 1777281990 | 6.11° C | 97% | 1019.6 hPa | 0 mm | - | 0 W/m² | - |
| 1777281390 | 6.11° C | 97% | 1019.2 hPa | 0 mm | - | 0 W/m² | - |
| 1777280790 | 6.67° C | 97% | 1019.2 hPa | 0 mm | - | 0 W/m² | - |
| 1777280190 | 6.67° C | 97% | 1019.1 hPa | 0 mm | - | 0 W/m² | - |
| 1777279590 | 6.11° C | 97% | 1019 hPa | 0 mm | - | 0 W/m² | - |
| 1777278990 | 6.67° C | 96% | 1019 hPa | 0 mm | - | 0 W/m² | - |
| 1777278390 | 6.11° C | 96% | 1019 hPa | 0 mm | - | 0 W/m² | - |
| 1777277790 | 6.11° C | 96% | 1019 hPa | 0 mm | - | 0 W/m² | - |
| 1777277190 | 6.67° C | 96% | 1018.6 hPa | 0 mm | - | 0 W/m² | - |
| 1777276590 | 6.67° C | 96% | 1018.7 hPa | 0 mm | - | 0 W/m² | - |
| 1777275990 | 6.67° C | 96% | 1018.8 hPa | 0 mm | - | 0 W/m² | - |
| 1777275390 | 6.67° C | 95% | 1018.8 hPa | 0 mm | - | 0 W/m² | - |
* Rain latest hour (hover to see other rain measurements)
** Current wind speed in m/s (hover to see current wind gust speed)